| time (UTC) | temp F | wind direction | speed MPH | gust MPH | rain 1hr in | rain 24hr in | rain mn in | humidity % | barometer mb |
| 20260507105557 | 86 | 90 | 5.0 | 17.0 | 0.00 | 0.00 | 0.00 | 33 | 1001.3 |
| 20260507105057 | 86 | 112 | 13.0 | 16.0 | 0.00 | 0.00 | 0.00 | 34 | 1001.3 |
| 20260507104557 | 86 | 135 | 8.0 | 12.0 | 0.00 | 0.00 | 0.00 | 35 | 1001.3 |
| 20260507104057 | 86 | 112 | 4.0 | 12.0 | 0.00 | 0.00 | 0.00 | 35 | 1001.6 |
| 20260507103557 | 85 | 112 | 13.0 | 14.0 | 0.00 | 0.00 | 0.00 | 36 | 1001.4 |
| 20260507103057 | 85 | 135 | 11.0 | 13.0 | 0.00 | 0.00 | 0.00 | 36 | 1001.5 |
| 20260507102557 | 85 | 135 | 5.0 | 16.0 | 0.00 | 0.00 | 0.00 | 34 | 1001.7 |
| 20260507102057 | 86 | 112 | 10.0 | 12.0 | 0.00 | 0.00 | 0.00 | 35 | 1001.7 |
| 20260507101557 | 85 | 135 | 9.0 | 17.0 | 0.00 | 0.00 | 0.00 | 35 | 1001.5 |
| 20260507101057 | 86 | 112 | 11.0 | 17.0 | 0.00 | 0.00 | 0.00 | 36 | 1001.7 |
| 20260507100557 | 86 | 135 | 4.0 | 15.0 | 0.00 | 0.00 | 0.00 | 36 | 1001.8 |
| 20260507100057 | 86 | 112 | 7.0 | 14.0 | 0.00 | 0.00 | 0.00 | 36 | 1001.7 |
| 20260507095557 | 85 | 112 | 8.0 | 12.0 | 0.00 | 0.00 | 0.00 | 37 | 1001.8 |
| 20260507095057 | 85 | 112 | 9.0 | 10.0 | 0.00 | 0.00 | 0.00 | 37 | 1001.8 |
| 20260507094557 | 84 | 112 | 9.0 | 11.0 | 0.00 | 0.00 | 0.00 | 37 | 1001.9 |
| 20260507094057 | 85 | 90 | 5.0 | 12.0 | 0.00 | 0.00 | 0.00 | 36 | 1001.8 |
| 20260507093557 | 85 | 112 | 4.0 | 9.0 | 0.00 | 0.00 | 0.00 | 37 | 1001.9 |
| 20260507093057 | 85 | 112 | 8.0 | 12.0 | 0.00 | 0.00 | 0.00 | 37 | 1001.9 |
| 20260507092557 | 85 | 135 | 8.0 | 12.0 | 0.00 | 0.00 | 0.00 | 37 | 1001.9 |
| 20260507092057 | 85 | 112 | 5.0 | 11.0 | 0.00 | 0.00 | 0.00 | 37 | 1002.0 |
| 20260507091557 | 86 | 112 | 6.0 | 10.0 | 0.00 | 0.00 | 0.00 | 37 | 1002.0 |
| 20260507091057 | 86 | 135 | 0.0 | 9.0 | 0.00 | 0.00 | 0.00 | 37 | 1002.1 |
| 20260507090557 | 85 | 157 | 0.0 | 8.0 | 0.00 | 0.00 | 0.00 | 37 | 1002.2 |
| 20260507090057 | 84 | 112 | 5.0 | 7.0 | 0.00 | 0.00 | 0.00 | 39 | 1002.2 |
| 20260507085557 | 83 | 157 | 4.0 | 8.0 | 0.00 | 0.00 | 0.00 | 39 | 1002.2 |
| 20260507085057 | 84 | 135 | 0.0 | 12.0 | 0.00 | 0.00 | 0.00 | 39 | 1002.2 |
| 20260507084557 | 84 | 112 | 6.0 | 7.0 | 0.00 | 0.00 | 0.00 | 39 | 1002.2 |
| 20260507084057 | 84 | 67 | 0.0 | 8.0 | 0.00 | 0.00 | 0.00 | 38 | 1002.2 |
| 20260507083557 | 84 | 112 | 0.0 | 5.0 | 0.00 | 0.00 | 0.00 | 38 | 1002.2 |
| 20260507083057 | 84 | 157 | 0.0 | 7.0 | 0.00 | 0.00 | 0.00 | 38 | 1002.1 |
| 20260507082557 | 84 | 112 | 6.0 | 6.0 | 0.00 | 0.00 | 0.00 | 39 | 1002.2 |
| 20260507082057 | 83 | 135 | 3.0 | 6.0 | 0.00 | 0.00 | 0.00 | 40 | 1002.2 |
| 20260507081557 | 82 | 67 | 0.0 | 5.0 | 0.00 | 0.00 | 0.00 | 41 | 1002.2 |
| 20260507081057 | 81 | 112 | 3.0 | 9.0 | 0.00 | 0.00 | 0.00 | 42 | 1002.1 |
| 20260507080557 | 79 | 112 | 0.0 | 5.0 | 0.00 | 0.00 | 0.00 | 44 | 1002.1 |
| 20260507080057 | 77 | 112 | 2.0 | 6.0 | 0.00 | 0.00 | 0.00 | 45 | 1002.1 |
| 20260507075557 | 76 | 135 | 0.0 | 4.0 | 0.00 | 0.00 | 0.00 | 46 | 1002.1 |
| 20260507075057 | 75 | 112 | 0.0 | 6.0 | 0.00 | 0.00 | 0.00 | 46 | 1002.2 |
| 20260507074557 | 75 | 112 | 0.0 | 8.0 | 0.00 | 0.00 | 0.00 | 46 | 1002.2 |
| 20260507074057 | 76 | 67 | 0.0 | 5.0 | 0.00 | 0.00 | 0.00 | 46 | 1002.3 |
| 20260507073557 | 77 | 67 | 4.0 | 7.0 | 0.00 | 0.00 | 0.00 | 45 | 1002.2 |
| 20260507073057 | 77 | 67 | 0.0 | 5.0 | 0.00 | 0.00 | 0.00 | 45 | 1002.3 |
| 20260507072557 | 77 | 112 | 2.0 | 4.0 | 0.00 | 0.00 | 0.00 | 45 | 1002.4 |
| 20260507072057 | 77 | 112 | 0.0 | 5.0 | 0.00 | 0.00 | 0.00 | 46 | 1002.4 |
| 20260507071557 | 76 | 90 | 0.0 | 4.0 | 0.00 | 0.00 | 0.00 | 46 | 1002.5 |
| 20260507071057 | 75 | 45 | 0.0 | 5.0 | 0.00 | 0.00 | 0.00 | 47 | 1002.4 |
| 20260507070557 | 74 | 112 | 0.0 | 6.0 | 0.00 | 0.00 | 0.00 | 48 | 1002.4 |
| 20260507070057 | 74 | 112 | 0.0 | 1.0 | 0.00 | 0.00 | 0.00 | 49 | 1002.3 |
| 20260507065557 | 73 | 67 | 0.0 | 6.0 | 0.00 | 0.00 | 0.00 | 49 | 1002.2 |
| 20260507065057 | 73 | 45 | 0.0 | 4.0 | 0.00 | 0.00 | 0.00 | 50 | 1002.3 |
| 20260507064557 | 71 | 45 | 0.0 | 4.0 | 0.00 | 0.00 | 0.00 | 51 | 1002.3 |
| 20260507064057 | 71 | 90 | 0.0 | 5.0 | 0.00 | 0.00 | 0.00 | 52 | 1002.4 |
| 20260507063557 | 70 | 112 | 0.0 | 2.0 | 0.00 | 0.00 | 0.00 | 53 | 1002.4 |
| 20260507063057 | 69 | 112 | 0.0 | 2.0 | 0.00 | 0.00 | 0.00 | 54 | 1002.3 |
| 20260507062557 | 68 | 135 | 2.0 | 4.0 | 0.00 | 0.00 | 0.00 | 54 | 1002.3 |
| 20260507062057 | 68 | 112 | 0.0 | 4.0 | 0.00 | 0.00 | 0.00 | 54 | 1002.4 |
| 20260507061557 | 67 | 112 | 0.0 | 5.0 | 0.00 | 0.00 | 0.00 | 55 | 1002.6 |
| 20260507061057 | 67 | 135 | 0.0 | 6.0 | 0.00 | 0.00 | 0.00 | 55 | 1002.6 |
| 20260507060557 | 66 | 112 | 0.0 | 4.0 | 0.00 | 0.00 | 0.00 | 55 | 1002.5 |
| 20260507060057 | 66 | 135 | 3.0 | 5.0 | 0.00 | 0.00 | 0.00 | 56 | 1002.6 |
| 20260507055557 | 66 | 135 | 0.0 | 4.0 | 0.00 | 0.00 | 0.00 | 56 | 1002.6 |
| 20260507055057 | 66 | 112 | 0.0 | 4.0 | 0.00 | 0.00 | 0.00 | 56 | 1002.7 |
| 20260507054557 | 66 | 45 | 0.0 | 0.0 | 0.00 | 0.00 | 0.00 | 56 | 1002.7 |
| 20260507054057 | 66 | 90 | 0.0 | 0.0 | 0.00 | 0.00 | 0.00 | 56 | 1002.8 |
| 20260507053557 | 65 | 90 | 0.0 | 0.0 | 0.00 | 0.00 | 0.00 | 56 | 1002.5 |
| 20260507053057 | 65 | 112 | 0.0 | 0.0 | 0.00 | 0.00 | 0.00 | 57 | 1002.6 |
| 20260507052557 | 65 | 112 | 0.0 | 0.0 | 0.00 | 0.00 | 0.00 | 57 | 1002.6 |
| 20260507052057 | 65 | 135 | 0.0 | 0.0 | 0.00 | 0.00 | 0.00 | 58 | 1002.6 |
| 20260507051557 | 65 | 135 | 0.0 | 0.0 | 0.00 | 0.00 | 0.00 | 59 | 1002.7 |
| 20260507051057 | 64 | 135 | 0.0 | 0.0 | 0.00 | 0.00 | 0.00 | 59 | 1002.6 |
| 20260507050557 | 64 | 135 | 0.0 | 0.0 | 0.00 | 0.00 | 0.00 | 60 | 1002.6 |
| 20260507050057 | 64 | 135 | 0.0 | 0.0 | 0.00 | 0.00 | 0.00 | 61 | 1002.6 |
| 20260507045557 | 63 | 135 | 0.0 | 0.0 | 0.00 | 0.00 | 0.00 | 63 | 1002.5 |
| 20260507045057 | 62 | 135 | 0.0 | 0.0 | 0.00 | 0.00 | 0.00 | 64 | 1002.5 |
| 20260507044557 | 61 | 135 | 0.0 | 0.0 | 0.00 | 0.00 | 0.00 | 64 | 1002.4 |
| 20260507044057 | 61 | 135 | 0.0 | 0.0 | 0.00 | 0.00 | 0.00 | 65 | 1002.3 |
| 20260507043557 | 61 | 135 | 0.0 | 0.0 | 0.00 | 0.00 | 0.00 | 64 | 1002.3 |
| 20260507043057 | 61 | 135 | 0.0 | 0.0 | 0.00 | 0.00 | 0.00 | 65 | 1002.4 |
| 20260507042557 | 60 | 135 | 0.0 | 0.0 | 0.00 | 0.00 | 0.00 | 66 | 1002.2 |
| 20260507042057 | 60 | 135 | 0.0 | 0.0 | 0.00 | 0.00 | 0.00 | 66 | 1002.3 |
| 20260507041557 | 59 | 135 | 0.0 | 0.0 | 0.00 | 0.00 | 0.00 | 67 | 1002.2 |
| 20260507041057 | 58 | 135 | 0.0 | 0.0 | 0.00 | 0.00 | 0.00 | 67 | 1002.3 |
| 20260507040557 | 56 | 135 | 0.0 | 0.0 | 0.00 | 0.00 | 0.00 | 67 | 1002.2 |
| 20260507040057 | 56 | 135 | 0.0 | 0.0 | 0.00 | 0.00 | 0.00 | 67 | 1002.2 |
| 20260507035557 | 55 | 135 | 0.0 | 0.0 | 0.00 | 0.00 | 0.00 | 67 | 1002.1 |
| 20260507035057 | 54 | 157 | 0.0 | 0.0 | 0.00 | 0.00 | 0.00 | 67 | 1002.1 |
| 20260507034557 | 54 | 157 | 0.0 | 0.0 | 0.00 | 0.00 | 0.00 | 67 | 1002.1 |
| 20260507034057 | 53 | 157 | 0.0 | 0.0 | 0.00 | 0.00 | 0.00 | 67 | 1002.1 |
| 20260507033557 | 54 | 157 | 0.0 | 0.0 | 0.00 | 0.00 | 0.00 | 67 | 1002.0 |
| 20260507033057 | 54 | 157 | 0.0 | 6.0 | 0.00 | 0.00 | 0.00 | 67 | 1002.0 |
| 20260507032557 | 51 | 135 | 4.0 | 6.0 | 0.00 | 0.00 | 0.00 | 66 | 1002.0 |
| 20260507032057 | 49 | 135 | 3.0 | 8.0 | 0.00 | 0.00 | 0.00 | 68 | 1001.9 |
| 20260507031557 | 48 | 90 | 6.0 | 10.0 | 0.00 | 0.00 | 0.00 | 71 | 1001.8 |
| 20260507031057 | 46 | 112 | 0.0 | 0.0 | 0.00 | 0.00 | 0.00 | 69 | 1001.8 |
| 20260507030557 | 46 | 157 | 0.0 | 0.0 | 0.00 | 0.00 | 0.00 | 68 | 1001.8 |
| 20260507030057 | 47 | 157 | 0.0 | 0.0 | 0.00 | 0.00 | 0.00 | 68 | 1001.8 |
| 20260507025557 | 48 | 157 | 0.0 | 0.0 | 0.00 | 0.00 | 0.00 | 68 | 1001.8 |
| 20260507025057 | 47 | 157 | 0.0 | 0.0 | 0.00 | 0.00 | 0.00 | 68 | 1001.8 |
| 20260507024557 | 47 | 157 | 0.0 | 0.0 | 0.00 | 0.00 | 0.00 | 68 | 1001.8 |
| 20260507024057 | 47 | 157 | 0.0 | 0.0 | 0.00 | 0.00 | 0.00 | 69 | 1001.8 |
| 20260507023557 | 48 | 135 | 0.0 | 0.0 | 0.00 | 0.00 | 0.00 | 69 | 1001.8 |
| 20260507023057 | 48 | 135 | 0.0 | 0.0 | 0.00 | 0.00 | 0.00 | 70 | 1001.8 |
| 20260507022557 | 48 | 135 | 0.0 | 0.0 | 0.00 | 0.00 | 0.00 | 70 | 1001.7 |
| 20260507022057 | 48 | 135 | 0.0 | 0.0 | 0.00 | 0.00 | 0.00 | 70 | 1001.7 |
| 20260507021557 | 49 | 135 | 0.0 | 0.0 | 0.00 | 0.00 | 0.00 | 71 | 1001.7 |
| 20260507021057 | 49 | 135 | 0.0 | 0.0 | 0.00 | 0.00 | 0.00 | 71 | 1001.7 |
| 20260507020557 | 50 | 135 | 0.0 | 0.0 | 0.00 | 0.00 | 0.00 | 71 | 1001.7 |
| 20260507020057 | 51 | 135 | 0.0 | 0.0 | 0.00 | 0.00 | 0.00 | 71 | 1001.8 |
| 20260507015557 | 51 | 135 | 0.0 | 0.0 | 0.00 | 0.00 | 0.00 | 70 | 1001.9 |
| 20260507015057 | 52 | 135 | 0.0 | 0.0 | 0.00 | 0.00 | 0.00 | 70 | 1001.9 |
| 20260507014557 | 52 | 135 | 0.0 | 0.0 | 0.00 | 0.00 | 0.00 | 71 | 1001.7 |
| 20260507014057 | 52 | 135 | 0.0 | 0.0 | 0.00 | 0.00 | 0.00 | 71 | 1001.8 |
| 20260507013557 | 52 | 135 | 0.0 | 0.0 | 0.00 | 0.00 | 0.00 | 70 | 1001.8 |
| 20260507013057 | 52 | 135 | 0.0 | 0.0 | 0.00 | 0.00 | 0.00 | 69 | 1001.8 |
| 20260507012557 | 52 | 135 | 0.0 | 0.0 | 0.00 | 0.00 | 0.00 | 69 | 1001.6 |
| 20260507012057 | 53 | 135 | 0.0 | 0.0 | 0.00 | 0.00 | 0.00 | 68 | 1001.5 |
| 20260507011557 | 53 | 135 | 0.0 | 0.0 | 0.00 | 0.00 | 0.00 | 68 | 1001.5 |
| 20260507011057 | 53 | 135 | 0.0 | 0.0 | 0.00 | 0.00 | 0.00 | 67 | 1001.5 |
| 20260507010557 | 54 | 135 | 0.0 | 0.0 | 0.00 | 0.00 | 0.00 | 67 | 1001.6 |
| 20260507010057 | 53 | 135 | 0.0 | 0.0 | 0.00 | 0.00 | 0.00 | 67 | 1001.6 |
| 20260507005557 | 53 | 135 | 0.0 | 0.0 | 0.00 | 0.00 | 0.00 | 68 | 1001.5 |
| 20260507005057 | 53 | 135 | 0.0 | 0.0 | 0.00 | 0.00 | 0.00 | 67 | 1001.4 |
| 20260507004557 | 53 | 135 | 0.0 | 0.0 | 0.00 | 0.00 | 0.00 | 66 | 1001.4 |
| 20260507004057 | 54 | 135 | 0.0 | 0.0 | 0.00 | 0.00 | 0.00 | 65 | 1001.3 |
| 20260507003557 | 55 | 135 | 0.0 | 0.0 | 0.00 | 0.00 | 0.00 | 65 | 1001.2 |
| 20260507003057 | 56 | 135 | 0.0 | 0.0 | 0.00 | 0.00 | 0.00 | 65 | 1001.2 |
| 20260507002557 | 56 | 135 | 0.0 | 0.0 | 0.00 | 0.00 | 0.00 | 65 | 1001.2 |
| 20260507002057 | 57 | 135 | 0.0 | 0.0 | 0.00 | 0.00 | 0.00 | 64 | 1001.3 |
| 20260507001557 | 57 | 112 | 0.0 | 0.0 | 0.00 | 0.00 | 0.00 | 64 | 1001.3 |
| 20260507001057 | 57 | 135 | 0.0 | 0.0 | 0.00 | 0.00 | 0.00 | 64 | 1001.4 |
| 20260507000557 | 57 | 112 | 0.0 | 0.0 | 0.00 | 0.00 | 0.00 | 65 | 1001.4 |
| 20260507000057 | 56 | 112 | 0.0 | 0.0 | 0.00 | 0.00 | 0.00 | 65 | 1001.3 |
| 20260506235558 | 56 | 112 | 0.0 | 0.0 | 0.00 | 0.00 | 0.00 | 65 | 1001.3 |
| 20260506235057 | 56 | 112 | 0.0 | 0.0 | 0.00 | 0.00 | 0.00 | 65 | 1001.2 |
| 20260506234558 | 56 | 112 | 0.0 | 0.0 | 0.00 | 0.00 | 0.00 | 65 | 1001.2 |
| 20260506234057 | 56 | 112 | 0.0 | 0.0 | 0.00 | 0.00 | 0.00 | 64 | 1001.2 |
| 20260506233558 | 56 | 112 | 0.0 | 0.0 | 0.00 | 0.00 | 0.00 | 64 | 1001.3 |
| 20260506233058 | 57 | 112 | 0.0 | 0.0 | 0.00 | 0.00 | 0.00 | 63 | 1001.3 |
| 20260506232557 | 57 | 112 | 0.0 | 0.0 | 0.00 | 0.00 | 0.00 | 63 | 1001.3 |
| 20260506232058 | 57 | 135 | 0.0 | 2.0 | 0.00 | 0.00 | 0.00 | 63 | 1001.3 |
| 20260506231558 | 58 | 135 | 2.0 | 4.0 | 0.00 | 0.00 | 0.00 | 63 | 1001.4 |
| 20260506231058 | 58 | 135 | 1.0 | 4.0 | 0.00 | 0.00 | 0.00 | 63 | 1001.5 |
| 20260506230558 | 58 | 135 | 3.0 | 3.0 | 0.00 | 0.00 | 0.00 | 62 | 1001.3 |
| 20260506230058 | 59 | 135 | 0.0 | 4.0 | 0.00 | 0.00 | 0.00 | 62 | 1001.3 |
| 20260506225558 | 59 | 135 | 0.0 | 3.0 | 0.00 | 0.00 | 0.00 | 62 | 1001.1 |
| 20260506225059 | 59 | 112 | 0.0 | 8.0 | 0.00 | 0.00 | 0.00 | 62 | 1001.1 |
| 20260506224558 | 59 | 135 | 5.0 | 8.0 | 0.00 | 0.00 | 0.00 | 63 | 1001.1 |
| 20260506224058 | 58 | 135 | 5.0 | 5.0 | 0.00 | 0.00 | 0.00 | 63 | 1001.0 |
| 20260506223558 | 58 | 135 | 1.0 | 5.0 | 0.00 | 0.00 | 0.00 | 64 | 1001.0 |
| 20260506223058 | 58 | 135 | 2.0 | 5.0 | 0.00 | 0.00 | 0.00 | 64 | 1001.1 |
| 20260506222558 | 57 | 135 | 3.0 | 4.0 | 0.00 | 0.00 | 0.00 | 63 | 1001.1 |
| 20260506222058 | 57 | 135 | 4.0 | 4.0 | 0.00 | 0.00 | 0.00 | 63 | 1001.1 |
| 20260506221558 | 57 | 135 | 0.0 | 0.0 | 0.00 | 0.00 | 0.00 | 61 | 1001.2 |
| 20260506221058 | 57 | 135 | 0.0 | 0.0 | 0.00 | 0.00 | 0.00 | 62 | 1001.1 |
| 20260506220558 | 57 | 135 | 0.0 | 0.0 | 0.00 | 0.00 | 0.00 | 62 | 1000.9 |
| 20260506220058 | 58 | 112 | 0.0 | 4.0 | 0.00 | 0.00 | 0.00 | 61 | 1000.8 |
| 20260506215558 | 58 | 112 | 2.0 | 2.0 | 0.00 | 0.00 | 0.00 | 59 | 1000.8 |
| 20260506215058 | 58 | 135 | 0.0 | 0.0 | 0.00 | 0.00 | 0.00 | 58 | 1000.8 |
| 20260506214558 | 59 | 135 | 0.0 | 0.0 | 0.00 | 0.00 | 0.00 | 57 | 1000.8 |
| 20260506214058 | 60 | 135 | 0.0 | 0.0 | 0.00 | 0.00 | 0.00 | 56 | 1000.8 |
| 20260506213558 | 60 | 135 | 0.0 | 0.0 | 0.00 | 0.00 | 0.00 | 56 | 1000.7 |
| 20260506213058 | 61 | 135 | 0.0 | 1.0 | 0.00 | 0.00 | 0.00 | 55 | 1000.7 |
| 20260506212558 | 62 | 112 | 3.0 | 5.0 | 0.00 | 0.00 | 0.00 | 54 | 1000.5 |
| 20260506212058 | 62 | 135 | 0.0 | 6.0 | 0.00 | 0.00 | 0.00 | 53 | 1000.6 |
| 20260506211558 | 62 | 112 | 2.0 | 5.0 | 0.00 | 0.00 | 0.00 | 53 | 1000.4 |
| 20260506211058 | 63 | 112 | 4.0 | 9.0 | 0.00 | 0.00 | 0.00 | 53 | 1000.4 |
| 20260506210558 | 63 | 112 | 0.0 | 6.0 | 0.00 | 0.00 | 0.00 | 53 | 1000.5 |
| 20260506210058 | 62 | 112 | 3.0 | 6.0 | 0.00 | 0.00 | 0.00 | 53 | 1000.5 |
| 20260506205558 | 62 | 112 | 5.0 | 6.0 | 0.00 | 0.00 | 0.00 | 53 | 1000.5 |
| 20260506205058 | 63 | 112 | 0.0 | 0.0 | 0.00 | 0.00 | 0.00 | 51 | 1000.4 |
| 20260506204558 | 63 | 112 | 0.0 | 4.0 | 0.00 | 0.00 | 0.00 | 50 | 1000.3 |
| 20260506204058 | 64 | 90 | 0.0 | 0.0 | 0.00 | 0.00 | 0.00 | 49 | 1000.3 |
| 20260506203558 | 65 | 112 | 0.0 | 0.0 | 0.00 | 0.00 | 0.00 | 47 | 1000.2 |
| 20260506203058 | 66 | 112 | 0.0 | 0.0 | 0.00 | 0.00 | 0.00 | 46 | 1000.2 |
| 20260506202558 | 66 | 112 | 0.0 | 6.0 | 0.00 | 0.00 | 0.00 | 45 | 1000.1 |
| 20260506202058 | 67 | 135 | 0.0 | 9.0 | 0.00 | 0.00 | 0.00 | 44 | 1000.1 |
| 20260506201558 | 67 | 112 | 0.0 | 9.0 | 0.00 | 0.00 | 0.00 | 44 | 1000.0 |
| 20260506201058 | 67 | 135 | 8.0 | 9.0 | 0.00 | 0.00 | 0.00 | 44 | 1000.1 |
| 20260506200558 | 67 | 157 | 4.0 | 8.0 | 0.00 | 0.00 | 0.00 | 44 | 1000.2 |
| 20260506200058 | 67 | 135 | 4.0 | 8.0 | 0.00 | 0.00 | 0.00 | 44 | 1000.1 |
| 20260506195558 | 67 | 135 | 4.0 | 11.0 | 0.00 | 0.00 | 0.00 | 44 | 1000.0 |
| 20260506195058 | 67 | 135 | 4.0 | 9.0 | 0.00 | 0.00 | 0.00 | 45 | 1000.1 |
| 20260506194558 | 67 | 112 | 4.0 | 8.0 | 0.00 | 0.00 | 0.00 | 45 | 1000.1 |
| 20260506194058 | 67 | 135 | 3.0 | 5.0 | 0.00 | 0.00 | 0.00 | 44 | 1000.0 |
| 20260506193558 | 67 | 112 | 2.0 | 7.0 | 0.00 | 0.00 | 0.00 | 44 | 1000.0 |
| 20260506193058 | 67 | 135 | 4.0 | 8.0 | 0.00 | 0.00 | 0.00 | 44 | 1000.0 |
| 20260506192558 | 67 | 135 | 6.0 | 6.0 | 0.00 | 0.00 | 0.00 | 45 | 1000.0 |
| 20260506192058 | 66 | 135 | 0.0 | 6.0 | 0.00 | 0.00 | 0.00 | 45 | 1000.0 |
| 20260506191558 | 66 | 112 | 0.0 | 5.0 | 0.00 | 0.00 | 0.00 | 46 | 1000.0 |
| 20260506191058 | 66 | 135 | 0.0 | 4.0 | 0.00 | 0.00 | 0.00 | 46 | 999.9 |
| 20260506190558 | 66 | 112 | 1.0 | 5.0 | 0.00 | 0.00 | 0.00 | 46 | 999.9 |
| 20260506190058 | 66 | 112 | 0.0 | 0.0 | 0.00 | 0.00 | 0.00 | 47 | 999.9 |
| 20260506185558 | 66 | 112 | 3.0 | 4.0 | 0.00 | 0.00 | 0.00 | 46 | 999.7 |
| 20260506185058 | 66 | 112 | 0.0 | 0.0 | 0.00 | 0.00 | 0.00 | 46 | 999.7 |
| 20260506184558 | 66 | 112 | 0.0 | 0.0 | 0.00 | 0.00 | 0.00 | 46 | 999.7 |
| 20260506184058 | 67 | 112 | 0.0 | 0.0 | 0.00 | 0.00 | 0.00 | 45 | 999.7 |
| 20260506183558 | 67 | 112 | 0.0 | 0.0 | 0.00 | 0.00 | 0.00 | 44 | 999.6 |
| 20260506183058 | 68 | 112 | 0.0 | 4.0 | 0.00 | 0.00 | 0.00 | 44 | 999.7 |
| 20260506182558 | 68 | 112 | 0.0 | 4.0 | 0.00 | 0.00 | 0.00 | 43 | 999.5 |
| 20260506182058 | 68 | 112 | 0.0 | 2.0 | 0.00 | 0.00 | 0.00 | 43 | 999.5 |
| 20260506181558 | 68 | 112 | 0.0 | 0.0 | 0.00 | 0.00 | 0.00 | 42 | 999.4 |
| 20260506181058 | 69 | 112 | 0.0 | 0.0 | 0.00 | 0.00 | 0.00 | 41 | 999.6 |
| 20260506180558 | 69 | 112 | 0.0 | 0.0 | 0.00 | 0.00 | 0.00 | 41 | 999.5 |
| 20260506180058 | 70 | 135 | 0.0 | 3.0 | 0.00 | 0.00 | 0.00 | 40 | 999.3 |
| 20260506175558 | 70 | 112 | 0.0 | 4.0 | 0.00 | 0.00 | 0.00 | 40 | 999.2 |
| 20260506175058 | 71 | 112 | 3.0 | 5.0 | 0.00 | 0.00 | 0.00 | 40 | 999.2 |
| 20260506174558 | 71 | 135 | 4.0 | 5.0 | 0.00 | 0.00 | 0.00 | 39 | 999.0 |
| 20260506174058 | 72 | 112 | 4.0 | 12.0 | 0.00 | 0.00 | 0.00 | 39 | 998.9 |
| 20260506173558 | 72 | 112 | 12.0 | 12.0 | 0.00 | 0.00 | 0.00 | 38 | 998.9 |
| 20260506173058 | 73 | 112 | 5.0 | 9.0 | 0.00 | 0.00 | 0.00 | 38 | 998.9 |
| 20260506172558 | 73 | 135 | 9.0 | 10.0 | 0.00 | 0.00 | 0.00 | 37 | 998.8 |
| 20260506172058 | 73 | 135 | 5.0 | 10.0 | 0.00 | 0.00 | 0.00 | 36 | 998.9 |
| 20260506171558 | 74 | 135 | 3.0 | 10.0 | 0.00 | 0.00 | 0.00 | 36 | 998.8 |
| 20260506171058 | 75 | 112 | 5.0 | 10.0 | 0.00 | 0.00 | 0.00 | 34 | 998.9 |
| 20260506170558 | 75 | 135 | 6.0 | 9.0 | 0.00 | 0.00 | 0.00 | 34 | 998.9 |
| 20260506170058 | 75 | 135 | 5.0 | 13.0 | 0.00 | 0.00 | 0.00 | 34 | 999.0 |
| 20260506165558 | 76 | 135 | 10.0 | 10.0 | 0.00 | 0.00 | 0.00 | 33 | 998.9 |
| 20260506165058 | 76 | 135 | 5.0 | 10.0 | 0.00 | 0.00 | 0.00 | 33 | 998.9 |
| 20260506164558 | 77 | 112 | 4.0 | 15.0 | 0.00 | 0.00 | 0.00 | 32 | 998.9 |
| 20260506164058 | 77 | 112 | 6.0 | 7.0 | 0.00 | 0.00 | 0.00 | 31 | 998.9 |
| 20260506163558 | 78 | 135 | 5.0 | 13.0 | 0.00 | 0.00 | 0.00 | 31 | 998.9 |
| 20260506163058 | 78 | 112 | 4.0 | 12.0 | 0.00 | 0.00 | 0.00 | 30 | 998.9 |
| 20260506162558 | 79 | 112 | 5.0 | 15.0 | 0.00 | 0.00 | 0.00 | 29 | 998.8 |
| 20260506162058 | 80 | 135 | 5.0 | 12.0 | 0.00 | 0.00 | 0.00 | 28 | 998.9 |
| 20260506161558 | 81 | 135 | 6.0 | 16.0 | 0.00 | 0.00 | 0.00 | 28 | 998.9 |
| 20260506161058 | 82 | 157 | 12.0 | 17.0 | 0.00 | 0.00 | 0.00 | 27 | 998.8 |
| 20260506160558 | 83 | 135 | 17.0 | 17.0 | 0.00 | 0.00 | 0.00 | 27 | 998.7 |
| 20260506160058 | 84 | 112 | 5.0 | 12.0 | 0.00 | 0.00 | 0.00 | 27 | 998.9 |
| 20260506155558 | 84 | 112 | 5.0 | 13.0 | 0.00 | 0.00 | 0.00 | 27 | 998.8 |
| 20260506155058 | 84 | 135 | 6.0 | 16.0 | 0.00 | 0.00 | 0.00 | 26 | 998.9 |
| 20260506154558 | 85 | 135 | 12.0 | 16.0 | 0.00 | 0.00 | 0.00 | 25 | 998.9 |
| 20260506154058 | 85 | 135 | 13.0 | 14.0 | 0.00 | 0.00 | 0.00 | 25 | 998.9 |
| 20260506153558 | 86 | 90 | 4.0 | 16.0 | 0.00 | 0.00 | 0.00 | 23 | 999.0 |
| 20260506153058 | 86 | 135 | 8.0 | 17.0 | 0.00 | 0.00 | 0.00 | 23 | 998.8 |
| 20260506152558 | 86 | 112 | 6.0 | 14.0 | 0.00 | 0.00 | 0.00 | 23 | 998.8 |
| 20260506152058 | 86 | 112 | 10.0 | 19.0 | 0.00 | 0.00 | 0.00 | 22 | 998.9 |
| 20260506151558 | 86 | 112 | 5.0 | 16.0 | 0.00 | 0.00 | 0.00 | 23 | 998.9 |
| 20260506151058 | 87 | 135 | 12.0 | 18.0 | 0.00 | 0.00 | 0.00 | 22 | 998.9 |
| 20260506150558 | 87 | 90 | 7.0 | 17.0 | 0.00 | 0.00 | 0.00 | 23 | 998.9 |
| 20260506150058 | 87 | 135 | 5.0 | 18.0 | 0.00 | 0.00 | 0.00 | 24 | 998.8 |
| 20260506145558 | 87 | 112 | 10.0 | 20.0 | 0.00 | 0.00 | 0.00 | 22 | 998.8 |
| 20260506145058 | 88 | 112 | 5.0 | 16.0 | 0.00 | 0.00 | 0.00 | 24 | 998.9 |
| 20260506144558 | 88 | 135 | 16.0 | 18.0 | 0.00 | 0.00 | 0.00 | 22 | 998.8 |
| 20260506144058 | 88 | 135 | 16.0 | 17.0 | 0.00 | 0.00 | 0.00 | 22 | 998.8 |
| 20260506143558 | 89 | 112 | 10.0 | 17.0 | 0.00 | 0.00 | 0.00 | 22 | 998.9 |
| 20260506143058 | 89 | 135 | 15.0 | 16.0 | 0.00 | 0.00 | 0.00 | 22 | 998.8 |
| 20260506142558 | 89 | 112 | 12.0 | 15.0 | 0.00 | 0.00 | 0.00 | 22 | 998.8 |
| 20260506142058 | 89 | 90 | 11.0 | 14.0 | 0.00 | 0.00 | 0.00 | 22 | 998.6 |
| 20260506141558 | 89 | 112 | 6.0 | 19.0 | 0.00 | 0.00 | 0.00 | 20 | 998.9 |
| 20260506141058 | 90 | 135 | 19.0 | 19.0 | 0.00 | 0.00 | 0.00 | 20 | 998.9 |
| 20260506140558 | 90 | 112 | 14.0 | 15.0 | 0.00 | 0.00 | 0.00 | 20 | 998.9 |
| 20260506140058 | 90 | 135 | 11.0 | 15.0 | 0.00 | 0.00 | 0.00 | 20 | 999.0 |
| 20260506135558 | 90 | 135 | 5.0 | 14.0 | 0.00 | 0.00 | 0.00 | 20 | 998.8 |
| 20260506135058 | 90 | 135 | 11.0 | 13.0 | 0.00 | 0.00 | 0.00 | 21 | 999.0 |
| 20260506134558 | 89 | 112 | 13.0 | 16.0 | 0.00 | 0.00 | 0.00 | 20 | 999.0 |
| 20260506134058 | 90 | 135 | 12.0 | 18.0 | 0.00 | 0.00 | 0.00 | 20 | 998.9 |
| 20260506133558 | 90 | 135 | 16.0 | 17.0 | 0.00 | 0.00 | 0.00 | 21 | 998.6 |
| 20260506133058 | 90 | 112 | 9.0 | 18.0 | 0.00 | 0.00 | 0.00 | 21 | 998.8 |
| 20260506132558 | 90 | 135 | 11.0 | 16.0 | 0.00 | 0.00 | 0.00 | 21 | 998.7 |
| 20260506132058 | 91 | 157 | 8.0 | 17.0 | 0.00 | 0.00 | 0.00 | 21 | 998.7 |
| 20260506131558 | 91 | 135 | 11.0 | 16.0 | 0.00 | 0.00 | 0.00 | 21 | 998.9 |
| 20260506131058 | 91 | 135 | 8.0 | 15.0 | 0.00 | 0.00 | 0.00 | 21 | 998.9 |
| 20260506130558 | 92 | 112 | 5.0 | 20.0 | 0.00 | 0.00 | 0.00 | 20 | 998.9 |
| 20260506130058 | 92 | 112 | 20.0 | 20.0 | 0.00 | 0.00 | 0.00 | 21 | 999.0 |
| 20260506125558 | 91 | 112 | 6.0 | 12.0 | 0.00 | 0.00 | 0.00 | 20 | 999.0 |
| 20260506125058 | 91 | 135 | 11.0 | 16.0 | 0.00 | 0.00 | 0.00 | 20 | 999.2 |
| 20260506124558 | 91 | 135 | 16.0 | 16.0 | 0.00 | 0.00 | 0.00 | 19 | 999.2 |
| 20260506124058 | 91 | 135 | 9.0 | 12.0 | 0.00 | 0.00 | 0.00 | 20 | 999.3 |
| 20260506123558 | 92 | 112 | 9.0 | 14.0 | 0.00 | 0.00 | 0.00 | 19 | 999.2 |
| 20260506123058 | 92 | 135 | 4.0 | 14.0 | 0.00 | 0.00 | 0.00 | 19 | 999.4 |
| 20260506122558 | 91 | 112 | 8.0 | 14.0 | 0.00 | 0.00 | 0.00 | 18 | 999.4 |
| 20260506122058 | 91 | 112 | 4.0 | 14.0 | 0.00 | 0.00 | 0.00 | 19 | 999.4 |
| 20260506121558 | 91 | 112 | 9.0 | 18.0 | 0.00 | 0.00 | 0.00 | 19 | 999.5 |
| 20260506121058 | 91 | 135 | 2.0 | 15.0 | 0.00 | 0.00 | 0.00 | 18 | 999.6 |
| 20260506120558 | 91 | 112 | 4.0 | 14.0 | 0.00 | 0.00 | 0.00 | 19 | 999.6 |
| 20260506120058 | 90 | 112 | 4.0 | 14.0 | 0.00 | 0.00 | 0.00 | 20 | 999.7 |
| 20260506115558 | 90 | 135 | 13.0 | 14.0 | 0.00 | 0.00 | 0.00 | 20 | 999.7 |
| 20260506115058 | 90 | 135 | 10.0 | 18.0 | 0.00 | 0.00 | 0.00 | 20 | 999.7 |
| 20260506114558 | 90 | 135 | 7.0 | 16.0 | 0.00 | 0.00 | 0.00 | 19 | 999.7 |
| 20260506114058 | 91 | 112 | 7.0 | 15.0 | 0.00 | 0.00 | 0.00 | 18 | 999.8 |
| 20260506113558 | 90 | 135 | 7.0 | 13.0 | 0.00 | 0.00 | 0.00 | 19 | 999.9 |
| 20260506113058 | 90 | 135 | 13.0 | 15.0 | 0.00 | 0.00 | 0.00 | 20 | 1000.0 |
| 20260506112558 | 89 | 135 | 8.0 | 17.0 | 0.00 | 0.00 | 0.00 | 20 | 1000.1 |
| 20260506112058 | 89 | 112 | 11.0 | 17.0 | 0.00 | 0.00 | 0.00 | 19 | 1000.1 |
| 20260506111558 | 90 | 112 | 10.0 | 13.0 | 0.00 | 0.00 | 0.00 | 20 | 1000.1 |
| 20260506111058 | 90 | 157 | 10.0 | 13.0 | 0.00 | 0.00 | 0.00 | 21 | 1000.2 |
| 20260506110558 | 89 | 112 | 5.0 | 15.0 | 0.00 | 0.00 | 0.00 | 21 | 1000.4 |
| 20260506110058 | 89 | 112 | 10.0 | 15.0 | 0.00 | 0.00 | 0.00 | 21 | 1000.2 |